Regional Weather Roundup
Issued by NWS

Home | Current Version | Previous Version | Text Only | Print | Product List | Glossary Off
Versions: 1 2 3 4 5 6 7 8 9 10 11 12 13 14 15 16 17 18 19 20 21 22 23 24 25 26 27 28 29 30 31 32 33 34 35 36 37 38 39 40 41 42 43 44 45 46 47 48 49 50

000
ASUS43 KIND 102259
RWRIN

WEATHER ROUNDUP FOR INDIANA
NATIONAL WEATHER SERVICE INDIANAPOLIS IN
600 PM EST SAT DEC 10 2016

NOTE: "FAIR" INDICATES FEW OR NO CLOUDS BELOW 12,000 FEET WITH NO
SIGNIFICANT WEATHER AND/OR OBSTRUCTIONS TO VISIBILITY.

* - STATION DOES NOT REPORT WEATHER SUCH AS PRECIPITATION OR FOG.

+ - STATION NOT QUALITY CONTROLLED BY THE NATIONAL WEATHER SERVICE.
    USE DATA WITH CAUTION...ESPECIALLY DEWPOINT AND RELATIVE
    HUMIDITY OBSERVATIONS.

INZ001>003-010>013-019-020-110000-
NORTHWEST INDIANA

CITY           SKY/WX    TMP DP  RH WIND       PRES   REMARKS
GARY /AIRPORT/ LGT SNOW  25  18  74 SW6       30.44R WCI  18
KNOX *+        CLOUDY    27  -4  26 SW5       30.43R WCI  21
LA PORTE +     CLOUDY    24  15  68 SW6       30.42S WCI  17
MONTICELLO +   CLOUDY    26  12  57 S7        30.43S WCI  18

$$

LMZ046-743>745-110000-
SOUTHERN LAKE MICHIGAN

STATION/POSITION TIME  TEMP    WIND        PRES    WAVE
                       AIR SEA DIR/SP/G            HT
                 (UTC) (F)     (DEG/KT/KT) (MB)    (FT)

$$

INZ004-005-014>016-021>024-110000-
NORTH CENTRAL INDIANA

CITY           SKY/WX    TMP DP  RH WIND       PRES   REMARKS
ELKHART        CLOUDY    25  14  63 SW5       30.42S WCI  19
GOSHEN         CLOUDY    25  13  60 S3        30.42S
SOUTH BEND     CLOUDY    23  14  68 SW5       30.42S WCI  17
WARSAW +       CLOUDY    27  12  54 SW3       30.42S

$$

INZ006>009-017-018-025>027-110000-
NORTHEAST INDIANA

CITY           SKY/WX    TMP DP  RH WIND       PRES   REMARKS
ANGOLA *+      PTCLDY    23  16  74 SW3       30.40S
FORT WAYNE     CLOUDY    25  15  66 SW3       30.44S
KENDALLVILLE + CLOUDY    24  15  68 SW3       30.42S

$$

INZ028-029-035-036-043>045-051>053-110000-
WEST CENTRAL INDIANA

CITY           SKY/WX    TMP DP  RH WIND       PRES   REMARKS
CRAWFORDSVL +  CLOUDY    26  18  73 S8        30.44R WCI  17
GREENCASTLE +  CLOUDY    28  19  69 S3        30.44S
LAFAYETTE      CLOUDY    26  16  65 SW7       30.44S WCI  18
TERRE HAUTE    MOCLDY    28  17  63 SE6       30.44F WCI  22

$$

INZ030>032-037>040-046>048-054>057-064-065-110000-
CENTRAL INDIANA

CITY           SKY/WX    TMP DP  RH WIND       PRES   REMARKS
COLUMBUS       CLOUDY    28  19  69 S7        30.46F WCI  21
FRANKFORT +    CLOUDY    29  18  63 S5        30.44F WCI  24
GREENWOOD *+   CLOUDY    29  19  66 S6        30.44F WCI  23
INDIANAPOLIS   CLOUDY    28  17  63 S9        30.43F WCI  19
-EAGLE CREEK   CLOUDY    29  16  58 S5        30.43F WCI  24
KOKOMO +       FLURRIES  26  17  68 S8        30.44S WCI  18
SHELBYVILLE    CLOUDY    29  17  61 S7        30.44F WCI  22
ZIONSVILLE +   CLOUDY    27  17  65 S3        30.43F

$$

INZ033-034-041-042-049-050-058-059-110000-
EAST CENTRAL INDIANA

CITY           SKY/WX    TMP DP  RH WIND       PRES   REMARKS
MUNCIE         CLOUDY    28  16  60 S9        30.43F WCI  19

$$

INZ060-061-067>069-081>083-085>088-110000-
SOUTHWEST INDIANA

CITY           SKY/WX    TMP DP  RH WIND       PRES   REMARKS
EVANSVILLE     CLOUDY    31  18  58 SE3       30.47F
HUNTINGBURG *+ PTCLDY    28  16  59 CALM      30.47S

$$

INZ062-063-066-070>080-084-089>092-110000-
SOUTH CENTRAL AND SOUTHEAST INDIANA

CITY           SKY/WX    TMP DP  RH WIND       PRES   REMARKS
BLOOMINGTON    PTCLDY    28  16  60 SE6       30.44S WCI  22
MADISON *+     CLOUDY    30  16  55 SE3       30.47F
SEYMOUR +      CLOUDY    30  18  59 S5        30.47F WCI  25

$$




USA.gov is the U.S. government's official web portal to all federal, state and local government web resources and services.